| time (UTC) | temp C | wind direction | speed KPH | gust KPH | rain 1hr cm | rain 24hr cm | rain mn cm | humidity % | barometer mb |
| 20260509003126 | 11 | 293 | 1.6 | 3.2 | 0.00 | 0.00 | 0.00 | 46 | 1009.0 |
| 20260509001047 | 11 | 293 | 3.2 | 6.4 | 0.00 | 0.00 | 0.00 | 45 | 1008.8 |
| 20260509000535 | 11 | 293 | 3.2 | 6.4 | 0.00 | 0.00 | 0.00 | 46 | 1009.0 |
| 20260508235518 | 11 | 315 | 1.6 | 6.4 | 0.00 | 0.00 | 0.00 | 48 | 1008.5 |
| 20260508233947 | 11 | 293 | 1.6 | 3.2 | 0.00 | 0.00 | 0.00 | 43 | 1008.6 |
| 20260508232924 | 11 | 293 | 0.0 | 0.0 | 0.00 | 0.00 | 0.00 | 45 | 1008.5 |
| 20260508231354 | 11 | 293 | 0.0 | 3.2 | 0.00 | 0.00 | 0.00 | 40 | 1008.7 |
| 20260508230334 | 12 | 293 | 1.6 | 3.2 | 0.00 | 0.00 | 0.00 | 36 | 1008.3 |
| 20260508225824 | 12 | 293 | 0.0 | 3.2 | 0.00 | 0.00 | 0.00 | 37 | 1008.5 |
| 20260508222723 | 12 | 293 | 1.6 | 6.4 | 0.00 | 0.00 | 0.00 | 36 | 1008.1 |
| 20260508222212 | 12 | 293 | 1.6 | 6.4 | 0.00 | 0.00 | 0.00 | 35 | 1008.2 |
| 20260508214604 | 13 | 248 | 3.2 | 11.3 | 0.00 | 0.00 | 0.00 | 29 | 1008.0 |
| 20260508201258 | 16 | 270 | 12.9 | 24.1 | 0.00 | 0.00 | 0.00 | 25 | 1006.8 |
| 20260508195730 | 16 | 270 | 16.1 | 25.7 | 0.00 | 0.00 | 0.00 | 24 | 1007.0 |
| 20260508173755 | 15 | 270 | 16.1 | 29.0 | 0.00 | 0.00 | 0.00 | 33 | 1008.2 |
| 20260508173244 | 15 | 270 | 12.9 | 29.0 | 0.00 | 0.00 | 0.00 | 35 | 1008.2 |
| 20260508153900 | 14 | 293 | 9.7 | 29.0 | 0.00 | 0.00 | 0.00 | 41 | 1010.2 |
| 20260508152331 | 13 | 293 | 8.0 | 29.0 | 0.00 | 0.00 | 0.00 | 42 | 1010.6 |
| 20260508133458 | 11 | 248 | 12.9 | 29.0 | 0.00 | 0.00 | 0.00 | 48 | 1010.7 |
| 20260508132438 | 11 | 270 | 9.7 | 27.4 | 0.00 | 0.00 | 0.00 | 49 | 1010.8 |
| 20260508120705 | 8 | 270 | 6.4 | 20.9 | 0.00 | 0.00 | 0.00 | 58 | 1010.6 |
| 20260508113605 | 8 | 270 | 8.0 | 17.7 | 0.00 | 0.00 | 0.00 | 63 | 1010.2 |
| 20260508110504 | 8 | 270 | 9.7 | 20.9 | 0.00 | 0.00 | 0.00 | 59 | 1009.6 |
| 20260508104424 | 8 | 180 | 8.0 | 20.9 | 0.00 | 0.00 | 0.00 | 56 | 1009.1 |
| 20260508102852 | 8 | 180 | 12.9 | 24.1 | 0.00 | 0.00 | 0.00 | 54 | 1008.9 |
| 20260508102343 | 8 | 180 | 9.7 | 24.1 | 0.00 | 0.00 | 0.00 | 53 | 1008.5 |
| 20260508101322 | 8 | 180 | 6.4 | 29.0 | 0.00 | 0.00 | 0.00 | 53 | 1008.3 |
| 20260508093710 | 8 | 180 | 17.7 | 32.2 | 0.00 | 0.00 | 0.00 | 55 | 1008.2 |
| 20260508092141 | 8 | 180 | 12.9 | 33.8 | 0.00 | 0.00 | 0.00 | 58 | 1008.1 |
| 20260508090611 | 8 | 180 | 11.3 | 29.0 | 0.00 | 0.00 | 0.00 | 61 | 1007.7 |
| 20260508082449 | 8 | 180 | 12.9 | 24.1 | 0.00 | 0.00 | 0.00 | 65 | 1007.1 |
| 20260508081939 | 8 | 180 | 9.7 | 24.1 | 0.00 | 0.00 | 0.00 | 64 | 1007.2 |
| 20260508081432 | 8 | 180 | 9.7 | 17.7 | 0.00 | 0.00 | 0.00 | 63 | 1007.0 |
| 20260508080918 | 8 | 180 | 11.3 | 17.7 | 0.00 | 0.00 | 0.00 | 63 | 1007.3 |
| 20260508074327 | 8 | 180 | 6.4 | 17.7 | 0.00 | 0.00 | 0.00 | 63 | 1007.1 |
| 20260508073311 | 9 | 180 | 8.0 | 25.7 | 0.00 | 0.00 | 0.00 | 62 | 1006.9 |
| 20260508071227 | 8 | 180 | 11.3 | 22.5 | 0.00 | 0.00 | 0.00 | 65 | 1007.0 |
| 20260508070108 | 8 | 180 | 8.0 | 20.9 | 0.00 | 0.00 | 0.00 | 64 | 1006.9 |
| 20260508065147 | 9 | 180 | 11.3 | 20.9 | 0.00 | 0.00 | 0.00 | 63 | 1006.9 |
| 20260508063107 | 9 | 180 | 11.3 | 20.9 | 0.00 | 0.00 | 0.00 | 61 | 1006.7 |
| 20260508053637 | 9 | 180 | 6.4 | 14.5 | 0.00 | 0.53 | 0.00 | 65 | 1007.3 |
| 20260508052105 | 9 | 180 | 3.2 | 17.7 | 0.00 | 0.53 | 0.00 | 69 | 1007.6 |
| 20260508045006 | 9 | 180 | 6.4 | 12.9 | 0.00 | 0.53 | 0.00 | 71 | 1007.4 |
| 20260508042924 | 9 | 180 | 6.4 | 14.5 | 0.00 | 0.53 | 0.00 | 71 | 1007.0 |
| 20260508042417 | 9 | 180 | 6.4 | 12.9 | 0.00 | 0.53 | 0.00 | 71 | 1007.1 |
| 20260508035313 | 11 | 180 | 6.4 | 17.7 | 0.00 | 0.53 | 0.00 | 62 | 1005.7 |
| 20260508033233 | 10 | 180 | 3.2 | 12.9 | 0.00 | 0.53 | 0.00 | 66 | 1006.0 |
| 20260508023542 | 11 | 180 | 9.7 | 17.7 | 0.00 | 0.53 | 0.53 | 61 | 1006.5 |
| 20260508022522 | 12 | 203 | 6.4 | 17.7 | 0.00 | 0.53 | 0.53 | 60 | 1006.3 |
| 20260508022012 | 12 | 203 | 6.4 | 17.7 | 0.00 | 0.53 | 0.53 | 60 | 1006.3 |
| 20260508015930 | 12 | 225 | 6.4 | 17.7 | 0.00 | 0.53 | 0.53 | 62 | 1006.3 |